Location: Chequamegon National Forest
(46.1070°N, 90.8420°W)
Time: 08:46:40
(UTC-05:00)

Amateur Radio Satellites - All Passes

Search period start: 23 October 2014 08:16
Search period end: 24 October 2014 08:16
Location: Chequamegon National Forest, 46.1070°N, 90.8420°W

Satellite Date Start Highest point End Downlink Frequencies (MHz)
Time Altitude Azimuth
RS-15 23 Oct 09:00:01 09:10:29 49° 248° (WSW) 09:21:23 29.354 - 29.394 USB, Beacon 29.352 USB
SO-67 23 Oct 09:00:43 09:03:38 26° 291° (WNW) 09:06:33 435.3500 MHz FM
HO-68 23 Oct 09:02:53 09:08:41 26° 92° (E) 09:14:26 435.675 MHz FM
Saudisat 1A 23 Oct 09:06:40 09:11:03 69° 309° (NW) 09:15:28 436.775 MHz
MaSat-1 23 Oct 09:15:56 09:18:24 28° 54° (NE) 09:20:40 437.345 MHz
JAS-2 23 Oct 09:32:03 09:34:54 13° 314° (NW) 09:37:48 435.800 - 435.900 CW/SSB, 435.910 FM
UKube-1 23 Oct 09:32:04 09:33:31 11° 89° (E) 09:34:58 145.840 MHz, 145.915 MHz
FUNcube-1 23 Oct 10:08:48 10:09:55 11° 87° (E) 10:11:02 145.950 - 145.970 MHz USB
Oscar 11 23 Oct 10:13:18 10:17:04 29° 95° (E) 10:20:49 145.825 FM, Beacon 2401.500 USB
Sapphire 23 Oct 10:47:27 10:48:28 11° 20° (NNE) 10:49:29 437.095 MHz 1200 baud AX-25 AFSK
Saudisat 1A 23 Oct 10:48:48 10:51:26 15° 330° (NNW) 10:54:04 436.775 MHz
HO-68 23 Oct 10:49:49 10:56:59 69° 291° (WNW) 11:04:06 435.675 MHz FM
ZACube-1 23 Oct 10:57:35 11:01:34 36° 97° (E) 11:05:26 437.345 MHz
UKube-1 23 Oct 11:05:52 11:10:16 77° 286° (WNW) 11:14:37 145.840 MHz, 145.915 MHz
PCSat 23 Oct 11:09:15 11:11:53 13° 27° (NNE) 11:14:29 145.825 MHz
KITSAT 1 23 Oct 11:27:34 11:32:46 19° 101° (ESE) 11:37:58 435.175 FM
FUNcube-1 23 Oct 11:42:35 11:46:54 76° 285° (WNW) 11:51:05 145.950 - 145.970 MHz USB
Oscar 16 23 Oct 11:48:50 11:49:47 11° 53° (NE) 11:50:43 437.025 USB, Beacon 2401.1428
Oscar 11 23 Oct 11:49:29 11:53:13 29° 293° (WNW) 11:56:57 145.825 FM, Beacon 2401.500 USB
Sapphire 23 Oct 12:28:51 12:33:43 32° 45° (NE) 12:38:33 437.095 MHz 1200 baud AX-25 AFSK
ZACube-1 23 Oct 12:34:22 12:37:47 23° 295° (WNW) 12:41:08 437.345 MHz
Oscar 19 23 Oct 12:38:38 12:42:53 27° 63° (ENE) 12:47:08 437.125 CW, 437.150 USB
HO-68 23 Oct 12:39:12 12:43:27 17° 312° (NW) 12:47:42 435.675 MHz FM
SO-50 23 Oct 12:43:28 12:46:09 16° 110° (ESE) 12:48:53 436.795 FM
PCSat 23 Oct 12:51:27 12:56:42 47° 50° (NE) 13:01:55 145.825 MHz
AO-27 23 Oct 12:53:28 12:56:46 17° 58° (ENE) 13:00:06 436.795 MHz FM
JAS-1B 23 Oct 12:54:37 12:59:47 33° 64° (ENE) 13:04:47 435.800 - 435.900 CW/SSB
ISS 23 Oct 13:00:13 13:02:06 14° 134° (SE) 13:03:59 145.800 FM
Oscar 10/S400 23 Oct 13:12:16 13:27:24 24° 149° (SSE) 13:43:18 145.825 - 145.975 CW/USB, Beacon 145.810 USB
KITSAT 1 23 Oct 13:18:53 13:26:58 83° 121° (ESE) 13:35:05 435.175 FM
Oscar 16 23 Oct 13:23:03 13:28:09 64° 72° (ENE) 13:33:15 437.025 USB, Beacon 2401.1428
AO-Echo 23 Oct 13:31:26 13:35:57 39° 67° (ENE) 13:40:39 ?
AO-7 23 Oct 13:39:50 13:43:53 15° 39° (NE) 13:47:56 29.400 - 29.500 MHz
Uribyol 2 23 Oct 13:40:01 13:44:53 42° 67° (ENE) 13:49:48 436.500 FM
ITAMSAT 1 23 Oct 13:45:35 13:50:30 44° 68° (ENE) 13:55:27 435.822 SSB
Gurwin Techsat 1B 23 Oct 13:56:38 14:01:13 31° 64° (ENE) 14:05:50 435.225 FM
TMSAT-1 23 Oct 14:08:58 14:13:30 30° 64° (ENE) 14:18:03 436.925 FM
Sapphire 23 Oct 14:12:07 14:17:22 50° 245° (WSW) 14:22:34 437.095 MHz 1200 baud AX-25 AFSK
UOSAT-12 23 Oct 14:16:25 14:18:31 13° 108° (ESE) 14:20:38 437.025 FM, 437.400 FM
Oscar 19 23 Oct 14:17:04 14:22:00 45° 261° (W) 14:26:57 437.125 CW, 437.150 USB
SO-50 23 Oct 14:21:36 14:26:07 72° 308° (NW) 14:30:47 436.795 FM
AO-27 23 Oct 14:30:27 14:35:40 78° 256° (WSW) 14:40:56 436.795 MHz FM
ISS 23 Oct 14:35:01 14:38:21 85° 151° (SSE) 14:41:42 145.800 FM
PCSat 23 Oct 14:35:13 14:39:56 31° 249° (WSW) 14:44:37 145.825 MHz
JAS-1B 23 Oct 14:44:57 14:50:28 38° 262° (W) 14:55:45 435.800 - 435.900 CW/SSB
Oscar 16 23 Oct 15:04:27 15:07:57 18° 270° (W) 15:11:27 437.025 USB, Beacon 2401.1428
AO-Echo 23 Oct 15:10:39 15:14:50 28° 266° (W) 15:19:10 ?
KITSAT 1 23 Oct 15:16:08 15:23:16 33° 325° (NW) 15:30:26 435.175 FM
Uosat F 23 Oct 15:16:12 15:19:47 20° 60° (ENE) 15:23:23 435.120 FM
Uribyol 2 23 Oct 15:20:00 15:24:29 29° 265° (W) 15:29:00 436.500 FM
ITAMSAT 1 23 Oct 15:25:46 15:30:09 27° 266° (W) 15:34:35 435.822 SSB
AO-7 23 Oct 15:26:55 15:34:48 52° 61° (ENE) 15:42:43 29.400 - 29.500 MHz
Gurwin Techsat 1B 23 Oct 15:36:04 15:41:03 41° 262° (W) 15:46:04 435.225 FM
TMSAT-1 23 Oct 15:48:14 15:53:15 42° 262° (W) 15:58:18 436.925 FM
Saudisat 1A 23 Oct 15:51:49 15:55:47 31° 42° (NE) 15:59:44 436.775 MHz
UOSAT-12 23 Oct 15:53:17 15:57:57 88° 306° (NW) 16:02:43 437.025 FM, 437.400 FM
SO-50 23 Oct 16:04:32 16:07:32 17° 330° (NNW) 16:10:34 436.795 FM
ISS 23 Oct 16:12:13 16:15:18 33° 351° (N) 16:18:24 145.800 FM
AO-27 23 Oct 16:15:12 16:16:03 10° 274° (W) 16:16:53 436.795 MHz FM
JAS-2 23 Oct 16:15:41 16:20:22 23° 55° (NE) 16:25:29 435.800 - 435.900 CW/SSB, 435.910 FM
Uosat F 23 Oct 16:53:09 16:58:07 62° 258° (WSW) 17:03:08 435.120 FM
KITSAT 1 23 Oct 17:16:18 17:21:36 18° 354° (N) 17:26:54 435.175 FM
AO-7 23 Oct 17:20:03 17:27:44 42° 262° (W) 17:35:30 29.400 - 29.500 MHz
Hamsat 23 Oct 17:24:29 17:28:22 37° 70° (ENE) 17:32:14 145.90 MHz
Saudisat 1A 23 Oct 17:31:18 17:35:26 40° 241° (WSW) 17:39:33 436.775 MHz
UOSAT-12 23 Oct 17:35:22 17:38:47 20° 327° (NNW) 17:42:14 437.025 FM, 437.400 FM
ISS 23 Oct 17:49:26 17:52:33 35° 11° (N) 17:55:39 145.800 FM
JAS-2 23 Oct 17:58:44 18:04:39 73° 258° (WSW) 18:11:26 435.800 - 435.900 CW/SSB, 435.910 FM
SO-67 23 Oct 18:04:38 18:05:51 12° 63° (ENE) 18:07:04 435.3500 MHz FM
OPAL 23 Oct 18:27:10 18:32:10 71° 105° (ESE) 18:37:05 ?
STRAND 1 23 Oct 18:32:45 18:34:37 12° 87° (E) 18:36:28 ?
Hamsat 23 Oct 19:01:11 19:04:26 22° 267° (W) 19:07:42 145.90 MHz
KITSAT 1 23 Oct 19:14:03 19:20:23 24° 24° (NNE) 19:26:42 435.175 FM
ISS 23 Oct 19:26:07 19:29:28 76° 210° (SSW) 19:32:48 145.800 FM
SO-50 23 Oct 19:31:25 19:33:01 11° 20° (NNE) 19:34:37 436.795 FM
HO-68 23 Oct 19:34:43 19:40:29 27° 55° (NE) 19:46:17 435.675 MHz FM
SO-67 23 Oct 19:35:01 19:38:23 53° 260° (W) 19:41:47 435.3500 MHz FM
JAS-2 23 Oct 19:49:05 19:51:11 12° 280° (W) 19:53:23 435.800 - 435.900 CW/SSB, 435.910 FM
OPAL 23 Oct 20:07:13 20:10:31 18° 304° (WNW) 20:13:47 ?
STRAND 1 23 Oct 20:09:21 20:14:33 87° 105° (ESE) 20:19:43 ?
UKube-1 23 Oct 20:29:37 20:32:11 16° 60° (ENE) 20:34:46 145.840 MHz, 145.915 MHz
UOSAT-12 23 Oct 21:02:57 21:03:21 10° 17° (NNE) 21:03:45 437.025 FM, 437.400 FM
AO-40 23 Oct 21:02:57 22:13:09 13° 111° (ESE) 23:00:34 Beacon 2401.320
ISS 23 Oct 21:04:10 21:05:39 13° 227° (SW) 21:07:09 145.800 FM
FUNcube-1 23 Oct 21:06:55 21:09:31 15° 61° (ENE) 21:12:07 145.950 - 145.970 MHz USB
KITSAT 1 23 Oct 21:09:29 21:17:32 63° 50° (NE) 21:25:31 435.175 FM
SO-50 23 Oct 21:10:33 21:14:59 35° 43° (NE) 21:19:27 436.795 FM
Oscar 11 23 Oct 21:10:45 21:14:35 32° 68° (ENE) 21:18:26 145.825 FM, Beacon 2401.500 USB
RS-15 23 Oct 21:17:32 21:25:30 24° 101° (E) 21:33:23 29.354 - 29.394 USB, Beacon 29.352 USB
HO-68 23 Oct 21:20:27 21:27:36 72° 255° (WSW) 21:34:48 435.675 MHz FM
STRAND 1 23 Oct 21:50:09 21:53:02 15° 303° (WNW) 21:55:56 ?
ZACube-1 23 Oct 21:56:02 22:00:21 42° 70° (ENE) 22:04:38 437.345 MHz
UKube-1 23 Oct 22:03:34 22:07:53 64° 258° (WSW) 22:12:15 145.840 MHz, 145.915 MHz
FUNcube-1 23 Oct 22:40:48 22:45:23 71° 258° (WSW) 22:49:55 145.950 - 145.970 MHz USB
UOSAT-12 23 Oct 22:40:57 22:45:05 29° 40° (NE) 22:49:09 437.025 FM, 437.400 FM
Oscar 11 23 Oct 22:47:06 22:50:47 27° 265° (W) 22:54:28 145.825 FM, Beacon 2401.500 USB
SO-50 23 Oct 22:51:06 22:55:37 40° 242° (WSW) 23:00:10 436.795 FM
KITSAT 1 23 Oct 23:05:26 23:12:31 35° 251° (WSW) 23:19:35 435.175 FM
HO-68 23 Oct 23:13:19 23:16:33 13° 275° (W) 23:19:48 435.675 MHz FM
RS-15 23 Oct 23:25:13 23:36:13 86° 124° (SE) 23:47:13 29.354 - 29.394 USB, Beacon 29.352 USB
ZACube-1 23 Oct 23:33:18 23:36:54 22° 267° (W) 23:40:29 437.345 MHz
UOSAT-12 24 Oct 00:20:53 00:25:28 51° 240° (WSW) 00:29:58 437.025 FM, 437.400 FM
MaSat-1 24 Oct 00:29:46 00:33:54 71° 116° (ESE) 00:37:36 437.345 MHz
Oscar 16 24 Oct 01:33:12 01:36:42 18° 91° (E) 01:40:11 437.025 USB, Beacon 2401.1428
AO-Echo 24 Oct 01:38:20 01:39:45 11° 85° (E) 01:41:10 ?
RS-15 24 Oct 01:39:55 01:49:56 39° 332° (NNW) 02:00:06 29.354 - 29.394 USB, Beacon 29.352 USB
Uribyol 2 24 Oct 01:52:26 01:54:08 11° 86° (E) 01:55:49 436.500 FM
ITAMSAT 1 24 Oct 01:57:51 01:59:57 12° 87° (E) 02:02:03 435.822 SSB
MaSat-1 24 Oct 02:07:43 02:09:52 14° 312° (NW) 02:11:55 437.345 MHz
JAS-1B 24 Oct 02:23:27 02:29:46 47° 100° (E) 02:37:11 435.800 - 435.900 CW/SSB
Oscar 10/S400 24 Oct 02:25:16 03:00:41 12° 247° (WSW) 03:54:50 145.825 - 145.975 CW/USB, Beacon 145.810 USB
Oscar 19 24 Oct 02:25:48 02:30:49 52° 100° (E) 02:35:47 437.125 CW, 437.150 USB
AO-27 24 Oct 02:41:17 02:45:55 31° 95° (E) 02:50:32 436.795 MHz FM
Oscar 16 24 Oct 03:11:26 03:16:30 63° 288° (WNW) 03:21:32 437.025 USB, Beacon 2401.1428
AO-Echo 24 Oct 03:14:00 03:19:20 79° 103° (ESE) 03:24:40 ?
Sapphire 24 Oct 03:15:55 03:18:41 14° 103° (ESE) 03:21:28 437.095 MHz 1200 baud AX-25 AFSK
AO-7 24 Oct 03:29:05 03:31:22 11° 83° (E) 03:33:40 29.400 - 29.500 MHz
Uribyol 2 24 Oct 03:29:09 03:34:24 84° 104° (ESE) 03:39:36 436.500 FM
ITAMSAT 1 24 Oct 03:34:55 03:40:12 89° 105° (ESE) 03:45:25 435.822 SSB
PCSat 24 Oct 03:36:49 03:41:02 24° 108° (ESE) 03:45:16 145.825 MHz
Gurwin Techsat 1B 24 Oct 03:49:12 03:54:31 67° 102° (ESE) 03:59:48 435.225 FM
RS-15 24 Oct 03:57:01 04:06:15 29° 6° (N) 04:15:40 29.354 - 29.394 USB, Beacon 29.352 USB
TMSAT-1 24 Oct 04:01:04 04:06:21 64° 102° (ESE) 04:11:37 436.925 FM
Oscar 19 24 Oct 04:05:50 04:09:50 24° 298° (WNW) 04:13:49 437.125 CW, 437.150 USB
OPAL 24 Oct 04:07:03 04:11:13 26° 60° (ENE) 04:15:21 ?
JAS-1B 24 Oct 04:14:33 04:20:20 37° 295° (WNW) 04:27:01 435.800 - 435.900 CW/SSB
AO-27 24 Oct 04:20:40 04:25:29 38° 294° (WNW) 04:30:17 436.795 MHz FM
AO-Echo 24 Oct 04:54:03 04:57:29 18° 301° (WNW) 05:00:54 ?
Oscar 16 24 Oct 04:54:19 04:54:51 10° 307° (NW) 04:55:23 437.025 USB, Beacon 2401.1428
Sapphire 24 Oct 04:55:53 05:01:18 90° 123° (ESE) 05:06:46 437.095 MHz 1200 baud AX-25 AFSK
Uosat F 24 Oct 04:58:28 05:03:02 33° 96° (E) 05:07:35 435.120 FM
JAS-2 24 Oct 05:05:37 05:10:56 20° 86° (E) 05:16:15 435.800 - 435.900 CW/SSB, 435.910 FM
Uribyol 2 24 Oct 05:10:07 05:13:12 16° 303° (WNW) 05:16:15 436.500 FM
ITAMSAT 1 24 Oct 05:16:02 05:18:58 15° 304° (NW) 05:21:54 435.822 SSB
AO-7 24 Oct 05:17:41 05:25:55 60° 103° (ESE) 05:34:07 29.400 - 29.500 MHz
PCSat 24 Oct 05:18:42 05:24:02 59° 307° (NW) 05:29:26 145.825 MHz
Gurwin Techsat 1B 24 Oct 05:30:12 05:33:59 20° 301° (WNW) 05:37:46 435.225 FM
TMSAT-1 24 Oct 05:41:57 05:45:48 21° 300° (WNW) 05:49:39 436.925 FM
OPAL 24 Oct 05:44:51 05:49:50 49° 258° (WSW) 05:54:47 ?
STRAND 1 24 Oct 05:50:08 05:54:11 24° 62° (ENE) 05:58:16 ?
RS-15 24 Oct 06:11:12 06:21:55 51° 39° (NE) 06:33:01 29.354 - 29.394 USB, Beacon 29.352 USB
Uosat F 24 Oct 06:37:16 06:41:49 34° 294° (WNW) 06:46:20 435.120 FM
Sapphire 24 Oct 06:41:27 06:45:29 21° 323° (NW) 06:49:34 437.095 MHz 1200 baud AX-25 AFSK
Hamsat 24 Oct 06:42:58 06:47:06 54° 100° (E) 06:51:13 145.90 MHz
JAS-2 24 Oct 06:49:06 06:56:53 85° 105° (ESE) 07:04:45 435.800 - 435.900 CW/SSB, 435.910 FM
PCSat 24 Oct 07:05:26 07:08:38 16° 329° (NNW) 07:11:51 145.825 MHz
AO-7 24 Oct 07:10:58 07:18:22 38° 304° (NW) 07:25:46 29.400 - 29.500 MHz
STRAND 1 24 Oct 07:28:05 07:33:04 51° 260° (W) 07:38:06 ?
Saudisat 1A 24 Oct 07:40:06 07:43:50 28° 116° (ESE) 07:47:36 436.775 MHz
